Regional Weather Roundup
Issued by NWS

Home | Current Version | Previous Version | Text Only | Print | Product List | Glossary Off
Versions: 1 2 3 4 5 6 7 8 9 10 11 12 13 14 15 16 17 18 19 20 21 22 23 24 25 26 27 28 29 30 31 32 33 34 35 36 37 38 39 40 41 42 43 44 45 46 47 48 49 50

014
ASUS43 KLSX 262257
RWRMO

WEATHER SUMMARY FOR MISSOURI
NATIONAL WEATHER SERVICE SPRINGFIELD MO
600 PM CDT FRI MAY 26 2017

NOTE: "FAIR" INDICATES FEW OR NO CLOUDS BELOW 12,000 FEET WITH NO
       SIGNIFICANT WEATHER AND/OR OBSTRUCTIONS TO VISIBILITY.
       CURRENT SKY AND/OR WEATHER CONDITIONS ARE NOT AVAILABLE FOR
       CHILLICOTHE AND FARMINGTON.

MOZ001>031-035>038-043-044-053-054-270000-
...NORTHERN AND WESTERN MISSOURI...

CITY           SKY/WX    TMP DP  RH WIND       PRES   REMARKS
KANSAS CTY INT MOSUNNY   83  64  52 N7        29.77S
LEE`S SUMMIT   SUNNY     81  65  58 NE7       29.77F
ST JOSEPH      SUNNY     84  63  49 NE6       29.76S
CHILLICOTHE      N/A     83  63  50 NE6       29.77S

$$
MOZ066>068-077>081-088>096-101>105-270000-
...SOUTHWEST MISSOURI...

CITY           SKY/WX    TMP DP  RH WIND       PRES   REMARKS
SPRINGFIELD    PTSUNNY   82  69  64 W5        29.78R
BRANSON        PTSUNNY   81  68  65 S6        29.80S

$$
MOZ032>034-039>042-045>050-055>058-069>072-270000-
...CENTRAL MISSOURI...

CITY           SKY/WX    TMP DP  RH WIND       PRES   REMARKS
COLUMBIA       NOT AVBL
JEFFERSON CITY CLOUDY    82  66  58 W6        29.76R
ROLLA          CLOUDY    76  68  76 W6        29.78R
SEDALIA        MOSUNNY   83  69  62 N7        29.79R
WARRENSBURG    MOSUNNY   81  63  54 CALM      29.77S

$$
MOZ051-052-059>065-270000-
...EAST CENTRAL MISSOURI...

CITY           SKY/WX    TMP DP  RH WIND       PRES   REMARKS
ST LOUIS INTL  CLOUDY    81  66  60 SW12      29.76R

$$
MOZ072>076-082>087-097>100-106>115-270000-
...SOUTH CENTRAL AND SOUTHEAST MISSOURI...

CITY           SKY/WX    TMP DP  RH WIND       PRES   REMARKS
CAPE GIRARDEAU CLOUDY    73  66  78 W15       29.81R
POPLAR BLUFF   CLOUDY    75  68  78 SW8       29.81R
WEST PLAINS    CLOUDY    76  67  73 S7        29.82R

$$



USA.gov is the U.S. government's official web portal to all federal, state and local government web resources and services.